Weather Roundup
Issued by NWS Corpus Christi, TX

Home | Current Version | Previous Version | Text Only | Print | Product List | Glossary On
Versions: 1 2 3 4 5 6 7 8 9 10 11 12 13 14 15 16 17 18 19 20 21 22 23 24 25 26 27 28 29 30 31 32 33 34 35 36 37 38 39 40 41 42 43 44 45 46 47 48 49 50
084
ASUS44 KCRP 310510
HRRCRP

SOUTH TEXAS REGIONAL WEATHER ROUNDUP
NATIONAL WEATHER SERVICE CORPUS CHRISTI TX
1200 AM CDT SUN JUL 31 2016


TXZ229>244-310600-
...CORPUS CHRISTI AREA OBSERVATIONS...

CITY           SKY/WX    TMP DP  RH WIND       PRES   REMARKS
CORPUS CHRISTI PTCLDY    83  77  82 SE10      29.97S HX  92
NAS CORPUS CHR   N/A    N/A N/A N/A MISG      29.97R
ROCKPORT       PTCLDY    84  76  76 SE12      29.97R HX  93
KINGSVILLE NAS PTCLDY    82  80  94 SE10      29.97R HX  94
ALICE          CLEAR     81  76  84 SE12      29.97R
FALFURRIAS     CLEAR     82  74  76 SE9       29.97R
$$

...VICTORIA AREA OBSERVATIONS...

CITY           SKY/WX    TMP DP  RH WIND       PRES   REMARKS
VICTORIA       CLEAR     77  75  93 E5        29.99R
BEEVILLE       FAIR      78  77  96 SE5       29.98R
PLEASANTON     CLEAR     81  71  72 SE5       29.97S
SAN ANTONIO    PTCLDY    82  71  69 SE14      29.99S
$$

...LAREDO AREA OBSERVATIONS...

CITY           SKY/WX    TMP DP  RH WIND       PRES   REMARKS
LAREDO         CLEAR     85  72  65 SE17      29.95R HX  91
COTULLA        CLEAR     85  72  65 SE15      29.95R HX  91
DEL RIO        MOCLDY    87  63  44 SE7       29.92R
MCALLEN        CLEAR     85  75  72 SE13      29.97R HX  93
HEBBRONVILLE   CLEAR     82  72  71 SE9       29.99R
$$

...OTHER TEXAS OBSERVATIONS...

CITY           SKY/WX    TMP DP  RH WIND       PRES   REMARKS
BROWNSVILLE    CLEAR     83  76  79 SE12      29.98S HX  91
HOUSTON        PTCLDY    82  76  81 S3        30.00R
COL. STATION   CLEAR     83  75  77 S12       29.99S HX  90
AUSTIN         CLEAR     82  74  76 S14       29.98R
WACO           CLEAR     86  68  54 S10       29.96R
FORT WORTH     PTCLDY    88  67  49 S14       29.92F HX  91
WICHITA FALLS  CLEAR     84  65  52 S10       29.91R
LUBBOCK        PTCLDY    76  59  55 SE8       30.04R
EL PASO        PTCLDY    85  56  37 S6        30.00R
$$

...MARINE OBSERVATIONS...

STATION/POSITION TIME  SKY/WX   TEMP    WIND        PRES    VSBY  WAVE   SWELL
                                AIR SEA DIR/SP/G                  HT/PER HT/PER
                 (UTC)          (F)     (DEG/KT/KT) (MB)    (MI)  (FT/S) (FT/S)
PORT ARANSAS     0500            84 89  150/ 15/ 16 1015.1R
BUOY 90 E PORT A 0450            86 87  150/ 12/ 14 1015.5R         2/ 7   2/ 7
BUOY 45 SE BAFFI 0450            85 85  160/ 16/ 17 1014.5S         2/ 4
BUOY 200 E PT IS 0450            86 87  130/  8/ 10 1015.5R         2/ 5   2/ 5
BUOY 15 E GALVES 0450            85 87  190/ 10/ 12 1015.8F         2/ 3   2/ 5
$$




USA.gov is the U.S. government's official web portal to all federal, state and local government web resources and services.